Time,TemperatureF,DewpointF,PressureIn,WindDirection,WindDirectionDegrees,WindSpeedMPH,WindSpeedGustMPH,Humidity,HourlyPrecipIn,Conditions,Clouds,dailyrainin,SoftwareType,DateUTC
2013-10-31 00:00:00,75.9,70.8,30.02,East,101,1.9,7.8,84,0.00,,---,0.00,VWS V14.01,2013-10-31 04:00:00,
2013-10-31 00:01:00,70.1,68.6,30.15,SE,134,0.0,0.0,95,0.00,,---,0.00,VWS V14.01,2013-10-31 04:01:00,
2013-10-31 00:02:00,75.9,70.9,30.02,SSE,159,1.8,7.8,84,0.00,,---,0.00,VWS V14.01,2013-10-31 04:02:00,
2013-10-31 00:03:00,75.3,70.3,30.02,South,188,5.2,7.8,84,0.00,,---,0.00,VWS V14.01,2013-10-31 04:03:00,
2013-10-31 00:04:00,75.6,70.6,30.02,South,180,1.7,8.0,85,0.00,,---,0.00,VWS V14.01,2013-10-31 04:04:00,
2013-10-31 00:05:00,75.0,70.1,30.02,SSE,163,0.7,8.0,85,0.00,,---,0.00,VWS V14.01,2013-10-31 04:05:00,
2013-10-31 00:06:00,70.0,68.6,30.15,SE,134,0.0,0.0,95,0.00,,---,0.00,VWS V14.01,2013-10-31 04:06:00,
2013-10-31 00:11:00,69.2,67.9,30.15,SE,134,0.0,0.0,96,0.00,,---,0.00,VWS V14.01,2013-10-31 04:11:00,
2013-10-31 00:16:00,69.8,68.4,30.15,SE,134,0.0,0.0,95,0.00,,---,0.00,VWS V14.01,2013-10-31 04:16:00,
2013-10-31 00:21:00,69.8,68.5,30.15,SE,134,0.0,0.0,96,0.00,,---,0.00,VWS V14.01,2013-10-31 04:21:00,
2013-10-31 00:26:00,69.8,68.6,30.15,SE,134,0.0,0.0,96,0.00,,---,0.00,VWS V14.01,2013-10-31 04:26:00,
2013-10-31 00:31:00,69.8,68.6,30.15,SE,134,0.0,0.0,96,0.00,,---,0.00,VWS V14.01,2013-10-31 04:31:00,
2013-10-31 00:36:00,68.9,67.8,30.15,SE,134,0.0,0.0,96,0.00,,---,0.00,VWS V14.01,2013-10-31 04:36:00,
2013-10-31 00:41:00,70.0,68.8,30.15,SE,134,0.0,0.0,96,0.00,,---,0.00,VWS V14.01,2013-10-31 04:41:00,
2013-10-31 00:46:00,69.5,68.3,30.15,SE,134,0.0,0.0,96,0.00,,---,0.00,VWS V14.01,2013-10-31 04:46:00,
2013-10-31 00:51:00,70.1,69.0,30.15,SE,134,0.0,0.0,96,0.00,,---,0.00,VWS V14.01,2013-10-31 04:51:00,
2013-10-31 00:56:00,69.5,68.4,30.14,SE,134,0.0,0.0,96,0.00,,---,0.00,VWS V14.01,2013-10-31 04:56:00,
2013-10-31 01:01:00,70.2,69.1,30.14,SE,134,0.0,0.0,96,0.00,,---,0.00,VWS V14.01,2013-10-31 05:01:00,
2013-10-31 01:06:00,70.0,68.9,30.14,SE,134,0.0,0.0,96,0.00,,---,0.00,VWS V14.01,2013-10-31 05:06:00,
2013-10-31 01:11:00,70.0,68.9,30.14,SE,134,0.0,0.0,96,0.00,,---,0.00,VWS V14.01,2013-10-31 05:11:00,
2013-10-31 01:16:00,69.9,68.8,30.14,SE,134,0.0,0.0,96,0.00,,---,0.00,VWS V14.01,2013-10-31 05:16:00,
2013-10-31 01:21:00,69.5,68.4,30.14,SE,134,0.0,0.0,96,0.00,,---,0.00,VWS V14.01,2013-10-31 05:21:00,
2013-10-31 01:26:00,69.5,68.5,30.14,SE,134,0.0,0.0,97,0.00,,---,0.00,VWS V14.01,2013-10-31 05:26:00,
2013-10-31 01:31:00,69.9,68.9,30.14,SE,134,0.0,0.0,97,0.00,,---,0.00,VWS V14.01,2013-10-31 05:31:00,
2013-10-31 01:36:00,69.7,68.8,30.14,SE,134,0.0,0.0,97,0.00,,---,0.00,VWS V14.01,2013-10-31 05:36:00,
2013-10-31 01:41:00,69.8,68.9,30.14,SE,134,0.0,0.0,97,0.00,,---,0.00,VWS V14.01,2013-10-31 05:41:00,
2013-10-31 01:46:00,69.6,68.8,30.14,SE,134,0.0,0.0,97,0.00,,---,0.00,VWS V14.01,2013-10-31 05:46:00,
2013-10-31 01:51:00,68.9,68.1,30.14,SE,134,0.0,0.0,97,0.00,,---,0.00,VWS V14.01,2013-10-31 05:51:00,
2013-10-31 01:56:00,69.7,68.9,30.14,SE,134,0.0,0.0,97,0.00,,---,0.00,VWS V14.01,2013-10-31 05:56:00,
2013-10-31 02:01:00,69.5,68.7,30.14,SE,134,0.0,0.0,97,0.00,,---,0.00,VWS V14.01,2013-10-31 06:01:00,
2013-10-31 02:06:00,69.6,68.8,30.14,SE,134,0.0,0.0,97,0.00,,---,0.00,VWS V14.01,2013-10-31 06:06:00,
2013-10-31 02:11:00,69.4,68.6,30.13,SE,134,0.0,0.0,97,0.00,,---,0.00,VWS V14.01,2013-10-31 06:11:00,
2013-10-31 02:16:00,69.4,68.7,30.13,SE,134,0.0,0.0,98,0.00,,---,0.00,VWS V14.01,2013-10-31 06:16:00,
2013-10-31 02:21:00,69.3,68.7,30.13,SE,134,0.0,0.0,98,0.00,,---,0.00,VWS V14.01,2013-10-31 06:21:00,
2013-10-31 02:26:00,69.4,68.8,30.14,SE,134,0.0,0.0,98,0.00,,---,0.00,VWS V14.01,2013-10-31 06:26:00,
2013-10-31 02:31:00,69.5,68.9,30.13,SE,134,0.0,0.0,98,0.00,,---,0.00,VWS V14.01,2013-10-31 06:31:00,
2013-10-31 02:36:00,69.5,68.9,30.13,SE,134,0.0,0.0,98,0.00,,---,0.00,VWS V14.01,2013-10-31 06:36:00,
2013-10-31 02:41:00,68.4,68.0,30.13,SE,134,0.0,0.0,98,0.00,,---,0.00,VWS V14.01,2013-10-31 06:41:00,
2013-10-31 02:46:00,69.5,69.1,30.13,SE,134,0.0,0.0,99,0.00,,---,0.00,VWS V14.01,2013-10-31 06:46:00,
2013-10-31 02:51:00,69.3,68.9,30.13,SE,134,0.0,0.0,99,0.00,,---,0.00,VWS V14.01,2013-10-31 06:51:00,
2013-10-31 02:56:00,69.1,68.7,30.13,SE,134,0.0,0.0,99,0.00,,---,0.00,VWS V14.01,2013-10-31 06:56:00,
2013-10-31 03:01:00,69.1,68.7,30.12,SE,134,0.0,0.0,99,0.00,,---,0.00,VWS V14.01,2013-10-31 07:01:00,
2013-10-31 03:06:00,68.3,68.0,30.12,SE,134,0.0,0.0,99,0.00,,---,0.00,VWS V14.01,2013-10-31 07:06:00,
2013-10-31 03:11:00,68.3,68.0,30.13,SE,134,0.0,0.0,99,0.00,,---,0.00,VWS V14.01,2013-10-31 07:11:00,
2013-10-31 03:16:00,69.1,68.8,30.12,SE,134,0.0,0.0,99,0.00,,---,0.00,VWS V14.01,2013-10-31 07:16:00,
2013-10-31 03:21:00,69.2,68.9,30.12,SE,134,0.0,0.0,99,0.00,,---,0.00,VWS V14.01,2013-10-31 07:21:00,
2013-10-31 03:26:00,69.1,68.9,30.12,SE,134,0.0,0.0,99,0.00,,---,0.00,VWS V14.01,2013-10-31 07:26:00,
2013-10-31 03:31:00,67.8,67.6,30.12,SE,134,0.0,0.0,99,0.00,,---,0.00,VWS V14.01,2013-10-31 07:31:00,
2013-10-31 03:36:00,69.5,69.3,30.12,SE,134,0.0,0.0,99,0.00,,---,0.00,VWS V14.01,2013-10-31 07:36:00,
2013-10-31 03:41:00,68.6,68.5,30.12,SE,134,0.0,0.0,100,0.00,,---,0.00,VWS V14.01,2013-10-31 07:41:00,
2013-10-31 03:46:00,68.8,68.7,30.11,SE,134,0.0,0.0,100,0.00,,---,0.00,VWS V14.01,2013-10-31 07:46:00,
2013-10-31 03:51:00,69.0,68.9,30.12,SE,134,0.0,0.0,100,0.00,,---,0.00,VWS V14.01,2013-10-31 07:51:00,
2013-10-31 03:56:00,69.7,69.6,30.11,SE,134,0.0,0.0,100,0.00,,---,0.00,VWS V14.01,2013-10-31 07:56:00,
2013-10-31 04:01:00,69.4,69.3,30.11,SE,134,0.0,0.0,100,0.00,,---,0.00,VWS V14.01,2013-10-31 08:01:00,
2013-10-31 04:06:00,69.1,69.0,30.11,SE,134,0.0,0.0,100,0.00,,---,0.00,VWS V14.01,2013-10-31 08:06:00,
2013-10-31 04:11:00,69.2,69.1,30.11,SE,134,0.0,0.0,100,0.00,,---,0.00,VWS V14.01,2013-10-31 08:11:00,
2013-10-31 04:16:00,69.1,69.0,30.11,SE,134,0.0,0.0,100,0.00,,---,0.00,VWS V14.01,2013-10-31 08:16:00,
2013-10-31 04:21:00,69.5,69.4,30.11,SE,134,0.0,0.0,100,0.00,,---,0.00,VWS V14.01,2013-10-31 08:21:00,
2013-10-31 04:26:00,68.5,68.4,30.11,SE,134,0.0,0.0,100,0.00,,---,0.00,VWS V14.01,2013-10-31 08:26:00,
2013-10-31 04:30:00,69.2,69.2,30.11,SE,134,0.0,0.0,100,0.00,,---,0.00,VWS V14.01,2013-10-31 08:30:00,
2013-10-31 04:35:00,68.5,68.5,30.11,SE,134,0.0,0.0,100,0.00,,---,0.00,VWS V14.01,2013-10-31 08:35:00,
2013-10-31 04:40:00,69.1,69.1,30.12,SE,134,0.0,0.0,100,0.00,,---,0.00,VWS V14.01,2013-10-31 08:40:00,
2013-10-31 04:45:00,69.1,69.1,30.11,SE,134,0.0,0.0,100,0.00,,---,0.00,VWS V14.01,2013-10-31 08:45:00,
2013-10-31 04:50:00,68.4,68.4,30.11,SE,134,0.0,0.0,100,0.00,,---,0.00,VWS V14.01,2013-10-31 08:50:00,
2013-10-31 04:55:00,68.6,68.6,30.12,SE,134,0.0,0.0,100,0.00,,---,0.00,VWS V14.01,2013-10-31 08:55:00,
2013-10-31 05:00:00,68.7,68.7,30.12,SE,134,0.0,0.0,100,0.00,,---,0.00,VWS V14.01,2013-10-31 09:00:00,
2013-10-31 05:05:00,68.4,68.4,30.11,SE,134,0.0,0.0,100,0.00,,---,0.00,VWS V14.01,2013-10-31 09:05:00,
2013-10-31 05:10:00,68.5,68.5,30.12,SE,134,0.0,0.0,100,0.00,,---,0.00,VWS V14.01,2013-10-31 09:10:00,
2013-10-31 05:15:00,67.9,67.9,30.12,SE,134,0.0,0.0,100,0.00,,---,0.00,VWS V14.01,2013-10-31 09:15:00,
2013-10-31 05:20:00,68.0,68.0,30.12,SE,134,0.0,0.0,100,0.00,,---,0.00,VWS V14.01,2013-10-31 09:20:00,
2013-10-31 05:25:00,67.9,67.9,30.12,SE,134,0.0,0.0,100,0.00,,---,0.00,VWS V14.01,2013-10-31 09:25:00,
2013-10-31 05:30:00,68.2,68.2,30.12,SE,134,0.0,0.0,100,0.00,,---,0.00,VWS V14.01,2013-10-31 09:30:00,
2013-10-31 05:35:00,67.1,67.1,30.12,SE,134,0.0,0.0,100,0.00,,---,0.00,VWS V14.01,2013-10-31 09:35:00,
2013-10-31 05:40:00,67.4,67.4,30.12,SE,134,0.0,0.0,100,0.00,,---,0.00,VWS V14.01,2013-10-31 09:40:00,
2013-10-31 05:45:00,67.6,67.6,30.12,SE,134,0.0,0.0,100,0.00,,---,0.00,VWS V14.01,2013-10-31 09:45:00,
2013-10-31 05:50:00,67.7,67.7,30.12,SE,134,0.0,0.0,100,0.00,,---,0.00,VWS V14.01,2013-10-31 09:50:00,
2013-10-31 05:55:00,67.4,67.4,30.12,SE,134,0.0,0.0,100,0.00,,---,0.00,VWS V14.01,2013-10-31 09:55:00,
2013-10-31 06:00:00,66.7,66.7,30.12,SE,134,0.0,0.0,100,0.00,,---,0.00,VWS V14.01,2013-10-31 10:00:00,
2013-10-31 06:05:00,67.1,67.1,30.12,SE,134,0.0,0.0,100,0.00,,---,0.00,VWS V14.01,2013-10-31 10:05:00,
2013-10-31 06:10:00,67.2,67.2,30.12,SE,134,0.0,0.0,100,0.00,,---,0.00,VWS V14.01,2013-10-31 10:10:00,
2013-10-31 06:15:00,67.2,67.2,30.12,SE,134,0.0,0.0,100,0.00,,---,0.00,VWS V14.01,2013-10-31 10:15:00,
2013-10-31 06:20:00,67.3,67.3,30.12,SE,134,0.0,0.0,100,0.00,,---,0.00,VWS V14.01,2013-10-31 10:20:00,
2013-10-31 06:25:00,67.1,67.1,30.12,SE,134,0.0,0.0,100,0.00,,---,0.00,VWS V14.01,2013-10-31 10:25:00,
2013-10-31 06:30:00,66.7,66.7,30.12,SE,134,0.0,0.0,100,0.00,,---,0.00,VWS V14.01,2013-10-31 10:30:00,
2013-10-31 06:35:00,66.7,66.7,30.12,SE,134,0.0,0.0,100,0.00,,---,0.00,VWS V14.01,2013-10-31 10:35:00,
2013-10-31 06:40:00,65.5,65.5,30.12,SE,134,0.0,0.0,100,0.00,,---,0.00,VWS V14.01,2013-10-31 10:40:00,
2013-10-31 06:45:00,66.1,66.1,30.13,SE,134,0.0,0.0,100,0.00,,---,0.00,VWS V14.01,2013-10-31 10:45:00,
2013-10-31 06:50:00,66.0,66.0,30.13,SE,134,0.0,0.0,100,0.00,,---,0.00,VWS V14.01,2013-10-31 10:50:00,
2013-10-31 06:55:00,66.5,66.5,30.13,SSE,167,2.2,2.9,100,0.00,,---,0.00,VWS V14.01,2013-10-31 10:55:00,
2013-10-31 07:00:00,67.4,67.4,30.13,ESE,103,0.0,0.0,100,0.00,,---,0.00,VWS V14.01,2013-10-31 11:00:00,
2013-10-31 07:05:00,67.4,67.4,30.13,ESE,103,0.0,0.0,100,0.00,,---,0.00,VWS V14.01,2013-10-31 11:05:00,
2013-10-31 07:10:00,66.9,66.9,30.13,ESE,103,0.0,0.0,100,0.00,,---,0.00,VWS V14.01,2013-10-31 11:10:00,
2013-10-31 07:15:00,67.2,67.2,30.13,ESE,103,0.0,0.0,100,0.00,,---,0.00,VWS V14.01,2013-10-31 11:15:00,
2013-10-31 07:20:00,66.8,66.8,30.13,ESE,103,0.0,0.0,100,0.00,,---,0.00,VWS V14.01,2013-10-31 11:20:00,
2013-10-31 07:25:00,67.1,67.1,30.13,ESE,103,0.0,0.0,100,0.00,,---,0.00,VWS V14.01,2013-10-31 11:25:00,
2013-10-31 07:30:00,67.1,67.1,30.13,ESE,103,0.0,0.0,100,0.00,,---,0.00,VWS V14.01,2013-10-31 11:30:00,
2013-10-31 07:35:00,66.7,66.7,30.13,ESE,103,0.0,0.0,100,0.00,,---,0.00,VWS V14.01,2013-10-31 11:35:00,
2013-10-31 07:40:00,66.4,66.4,30.13,ESE,103,0.0,0.0,100,0.00,,---,0.00,VWS V14.01,2013-10-31 11:40:00,
2013-10-31 07:45:00,66.4,66.4,30.13,ESE,103,0.0,0.0,100,0.00,,---,0.00,VWS V14.01,2013-10-31 11:45:00,
2013-10-31 07:50:00,66.6,66.6,30.13,ESE,103,0.0,0.0,100,0.00,,---,0.00,VWS V14.01,2013-10-31 11:50:00,
2013-10-31 07:55:00,66.4,66.4,30.13,ESE,103,0.0,0.0,100,0.00,,---,0.00,VWS V14.01,2013-10-31 11:55:00,
2013-10-31 08:00:00,66.3,66.3,30.13,ESE,103,0.0,0.0,100,0.00,,---,0.00,VWS V14.01,2013-10-31 12:00:00,
2013-10-31 08:05:00,65.3,65.3,30.13,ESE,103,0.0,0.0,100,0.00,,---,0.00,VWS V14.01,2013-10-31 12:05:00,
2013-10-31 08:10:00,66.1,66.1,30.13,ESE,103,0.0,0.0,100,0.00,,---,0.00,VWS V14.01,2013-10-31 12:10:00,
2013-10-31 08:15:00,66.3,66.3,30.13,ESE,103,0.0,0.0,100,0.00,,---,0.00,VWS V14.01,2013-10-31 12:15:00,
2013-10-31 08:20:00,66.7,66.7,30.13,ESE,103,0.0,0.0,100,0.00,,---,0.00,VWS V14.01,2013-10-31 12:20:00,
2013-10-31 08:25:00,67.1,67.1,30.13,ESE,103,0.0,0.0,100,0.00,,---,0.00,VWS V14.01,2013-10-31 12:25:00,
2013-10-31 08:30:00,67.7,67.7,30.14,ESE,103,0.0,0.0,100,0.00,,---,0.00,VWS V14.01,2013-10-31 12:30:00,
2013-10-31 08:35:00,68.2,68.2,30.13,ESE,103,0.0,0.0,100,0.00,,---,0.00,VWS V14.01,2013-10-31 12:35:00,
2013-10-31 08:40:00,67.9,67.9,30.14,ESE,103,0.0,0.0,100,0.00,,---,0.00,VWS V14.01,2013-10-31 12:40:00,
2013-10-31 08:45:00,67.7,67.7,30.14,ESE,103,0.0,0.0,100,0.00,,---,0.00,VWS V14.01,2013-10-31 12:45:00,
2013-10-31 08:50:00,68.2,68.2,30.13,ESE,103,0.0,0.0,100,0.00,,---,0.00,VWS V14.01,2013-10-31 12:50:00,
2013-10-31 08:55:00,68.0,68.0,30.13,ESE,103,0.0,0.0,100,0.00,,---,0.00,VWS V14.01,2013-10-31 12:55:00,
2013-10-31 09:00:00,69.2,69.2,30.13,ESE,103,0.0,0.0,100,0.00,,---,0.00,VWS V14.01,2013-10-31 13:00:00,
2013-10-31 09:05:00,69.5,69.5,30.13,ESE,103,0.0,0.0,100,0.00,,---,0.00,VWS V14.01,2013-10-31 13:05:00,
2013-10-31 09:10:00,69.5,69.5,30.13,ESE,103,0.0,0.0,100,0.00,,---,0.00,VWS V14.01,2013-10-31 13:10:00,
2013-10-31 09:15:00,69.5,69.5,30.13,SSE,150,2.1,2.7,100,0.00,,---,0.00,VWS V14.01,2013-10-31 13:15:00,
2013-10-31 09:20:00,69.7,69.7,30.14,SE,135,0.0,0.0,100,0.00,,---,0.00,VWS V14.01,2013-10-31 13:20:00,
2013-10-31 09:25:00,70.4,70.4,30.13,SE,128,0.0,1.2,100,0.00,,---,0.00,VWS V14.01,2013-10-31 13:25:00,
2013-10-31 09:30:00,70.6,70.6,30.13,SSE,150,5.8,6.8,100,0.00,,---,0.00,VWS V14.01,2013-10-31 13:30:00,
2013-10-31 09:35:00,72.2,72.2,30.13,SSE,163,4.0,4.2,100,0.00,,---,0.00,VWS V14.01,2013-10-31 13:35:00,
2013-10-31 09:40:00,72.0,71.9,30.14,South,187,1.0,2.9,100,0.00,,---,0.00,VWS V14.01,2013-10-31 13:40:00,
2013-10-31 09:45:00,73.1,72.7,30.14,ESE,122,0.0,0.0,99,0.00,,---,0.00,VWS V14.01,2013-10-31 13:45:00,
2013-10-31 09:50:00,73.5,72.9,30.14,South,169,3.0,3.3,98,0.00,,---,0.00,VWS V14.01,2013-10-31 13:50:00,
2013-10-31 09:55:00,73.3,72.4,30.14,SSE,155,1.4,3.7,97,0.00,,---,0.00,VWS V14.01,2013-10-31 13:55:00,
2013-10-31 10:00:00,74.7,73.4,30.14,SSE,166,3.4,3.4,96,0.00,,---,0.00,VWS V14.01,2013-10-31 14:00:00,
2013-10-31 10:05:00,74.8,72.6,30.14,SSE,155,4.0,5.0,93,0.00,,---,0.00,VWS V14.01,2013-10-31 14:05:00,
2013-10-31 10:10:00,75.2,72.0,30.14,ESE,122,4.2,8.1,90,0.00,,---,0.00,VWS V14.01,2013-10-31 14:10:00,
2013-10-31 10:15:00,77.0,72.9,30.13,SE,129,4.7,6.6,87,0.00,,---,0.00,VWS V14.01,2013-10-31 14:15:00,
2013-10-31 10:20:00,77.2,72.1,30.13,East,84,0.9,4.2,84,0.00,,---,0.00,VWS V14.01,2013-10-31 14:20:00,
2013-10-31 10:25:00,77.5,71.0,30.13,South,188,2.2,7.0,80,0.00,,---,0.00,VWS V14.01,2013-10-31 14:25:00,
2013-10-31 10:30:00,78.4,70.9,30.13,ESE,114,2.4,4.7,78,0.00,,---,0.00,VWS V14.01,2013-10-31 14:30:00,
2013-10-31 10:35:00,78.9,69.8,30.13,SSE,167,2.1,7.9,74,0.00,,---,0.00,VWS V14.01,2013-10-31 14:35:00,
2013-10-31 10:40:00,80.3,70.3,30.13,ESE,111,6.5,7.6,72,0.00,,---,0.00,VWS V14.01,2013-10-31 14:40:00,
2013-10-31 10:45:00,80.7,69.8,30.13,ESE,115,4.0,5.5,70,0.00,,---,0.00,VWS V14.01,2013-10-31 14:45:00,
2013-10-31 10:50:00,81.0,69.0,30.13,SSE,165,3.9,6.4,67,0.00,,---,0.00,VWS V14.01,2013-10-31 14:50:00,
2013-10-31 10:55:00,80.7,67.8,30.13,SE,131,6.3,6.6,65,0.00,,---,0.00,VWS V14.01,2013-10-31 14:55:00,
2013-10-31 11:00:00,80.9,67.5,30.13,SE,134,11.8,12.5,64,0.00,,---,0.00,VWS V14.01,2013-10-31 15:00:00,
2013-10-31 11:05:00,81.2,67.8,30.13,SE,127,8.0,10.5,64,0.00,,---,0.00,VWS V14.01,2013-10-31 15:05:00,
2013-10-31 11:10:00,80.5,67.1,30.13,East,97,5.3,11.2,64,0.00,,---,0.00,VWS V14.01,2013-10-31 15:10:00,
2013-10-31 11:15:00,81.5,67.7,30.13,SE,127,4.8,15.8,63,0.00,,---,0.00,VWS V14.01,2013-10-31 15:15:00,
2013-10-31 11:20:00,81.1,66.8,30.13,ESE,111,8.7,15.0,62,0.00,,---,0.00,VWS V14.01,2013-10-31 15:20:00,
2013-10-31 11:25:00,81.4,67.4,30.13,SE,127,6.8,11.7,62,0.00,,---,0.00,VWS V14.01,2013-10-31 15:25:00,
2013-10-31 11:30:00,82.6,67.0,30.13,ESE,107,7.6,10.8,59,0.00,,---,0.00,VWS V14.01,2013-10-31 15:30:00,
2013-10-31 11:35:00,81.8,65.7,30.12,SE,134,7.6,10.1,58,0.00,,---,0.00,VWS V14.01,2013-10-31 15:35:00,
2013-10-31 11:40:00,82.5,66.6,30.12,South,176,11.6,14.7,59,0.00,,---,0.00,VWS V14.01,2013-10-31 15:40:00,
2013-10-31 11:45:00,82.4,66.8,30.12,ESE,105,7.7,7.8,59,0.00,,---,0.00,VWS V14.01,2013-10-31 15:45:00,
2013-10-31 11:50:00,83.1,67.3,30.12,ESE,114,7.5,9.2,59,0.00,,---,0.00,VWS V14.01,2013-10-31 15:50:00,
2013-10-31 11:55:00,82.5,65.8,30.12,SE,138,9.3,10.3,57,0.00,,---,0.00,VWS V14.01,2013-10-31 15:55:00,
2013-10-31 12:00:00,83.6,67.3,30.11,ESE,108,2.2,5.3,58,0.00,,---,0.00,VWS V14.01,2013-10-31 16:00:00,
2013-10-31 12:05:00,82.4,66.3,30.11,ESE,121,6.0,13.2,58,0.00,,---,0.00,VWS V14.01,2013-10-31 16:05:00,
2013-10-31 12:10:00,82.4,66.7,30.11,SSE,149,3.2,9.6,59,0.00,,---,0.00,VWS V14.01,2013-10-31 16:10:00,
2013-10-31 12:15:00,81.8,66.0,30.11,SSE,152,1.5,5.0,59,0.00,,---,0.00,VWS V14.01,2013-10-31 16:15:00,
2013-10-31 12:20:00,82.2,66.1,30.11,SE,142,2.7,8.9,58,0.00,,---,0.00,VWS V14.01,2013-10-31 16:20:00,
2013-10-31 12:25:00,83.4,67.3,30.10,ESE,118,2.0,7.3,58,0.00,,---,0.00,VWS V14.01,2013-10-31 16:25:00,
2013-10-31 12:30:00,84.1,66.9,30.10,SE,139,1.4,9.7,56,0.00,,---,0.00,VWS V14.01,2013-10-31 16:30:00,
2013-10-31 12:35:00,83.4,65.9,30.10,ESE,120,2.5,2.7,56,0.00,,---,0.00,VWS V14.01,2013-10-31 16:35:00,
2013-10-31 12:40:00,84.3,66.9,30.10,East,96,0.8,6.3,56,0.00,,---,0.00,VWS V14.01,2013-10-31 16:40:00,
2013-10-31 12:45:00,84.4,66.7,30.10,SE,146,5.7,9.3,56,0.00,,---,0.00,VWS V14.01,2013-10-31 16:45:00,
2013-10-31 12:50:00,86.1,67.2,30.09,SE,127,3.2,10.5,53,0.00,,---,0.00,VWS V14.01,2013-10-31 16:50:00,
2013-10-31 12:55:00,86.0,65.7,30.09,SSE,149,2.4,4.8,51,0.00,,---,0.00,VWS V14.01,2013-10-31 16:55:00,
2013-10-31 13:00:00,87.0,66.1,30.08,SE,146,10.9,11.4,50,0.00,,---,0.00,VWS V14.01,2013-10-31 17:00:00,
2013-10-31 13:05:00,86.6,66.1,30.08,ESE,115,10.1,15.0,51,0.00,,---,0.00,VWS V14.01,2013-10-31 17:05:00,
2013-10-31 13:10:00,86.2,65.3,30.08,SE,143,4.1,6.6,50,0.00,,---,0.00,VWS V14.01,2013-10-31 17:10:00,
2013-10-31 13:15:00,87.3,66.2,30.08,ESE,117,3.3,11.4,50,0.00,,---,0.00,VWS V14.01,2013-10-31 17:15:00,
2013-10-31 13:20:00,87.7,65.4,30.08,SSE,160,5.7,10.0,48,0.00,,---,0.00,VWS V14.01,2013-10-31 17:20:00,
2013-10-31 13:25:00,86.3,64.8,30.08,South,170,5.6,8.9,49,0.00,,---,0.00,VWS V14.01,2013-10-31 17:25:00,
2013-10-31 13:30:00,85.6,64.9,30.07,SSE,150,3.1,5.4,50,0.00,,---,0.00,VWS V14.01,2013-10-31 17:30:00,
2013-10-31 13:35:00,86.6,65.2,30.07,South,174,5.8,10.3,49,0.00,,---,0.00,VWS V14.01,2013-10-31 17:35:00,
2013-10-31 13:40:00,86.5,65.8,30.07,South,187,6.8,10.4,50,0.00,,---,0.00,VWS V14.01,2013-10-31 17:40:00,
2013-10-31 13:45:00,87.0,65.7,30.07,SSE,166,5.8,7.5,49,0.00,,---,0.00,VWS V14.01,2013-10-31 17:45:00,
2013-10-31 13:50:00,86.9,65.5,30.06,SSE,156,4.0,9.6,49,0.00,,---,0.00,VWS V14.01,2013-10-31 17:50:00,
2013-10-31 13:55:00,86.7,65.4,30.06,South,170,5.1,9.8,49,0.00,,---,0.00,VWS V14.01,2013-10-31 17:55:00,
2013-10-31 14:00:00,86.4,66.3,30.06,SSE,156,6.1,6.3,51,0.00,,---,0.00,VWS V14.01,2013-10-31 18:00:00,
2013-10-31 14:05:00,86.5,65.5,30.05,SE,146,5.0,9.2,50,0.00,,---,0.00,VWS V14.01,2013-10-31 18:05:00,
2013-10-31 14:10:00,85.5,65.1,30.05,SE,141,5.5,8.0,51,0.00,,---,0.00,VWS V14.01,2013-10-31 18:10:00,
2013-10-31 14:15:00,84.6,65.1,30.05,SSE,152,7.5,8.0,52,0.00,,---,0.00,VWS V14.01,2013-10-31 18:15:00,
2013-10-31 14:20:00,84.9,66.0,30.05,East,90,0.0,1.6,53,0.00,,---,0.00,VWS V14.01,2013-10-31 18:20:00,
2013-10-31 14:25:00,85.1,65.6,30.05,ESE,122,3.5,7.8,52,0.00,,---,0.00,VWS V14.01,2013-10-31 18:25:00,
2013-10-31 14:30:00,85.1,65.7,30.04,SSE,163,1.9,6.6,52,0.00,,---,0.00,VWS V14.01,2013-10-31 18:30:00,
2013-10-31 14:35:00,84.3,64.6,30.04,ESE,108,7.5,8.5,52,0.00,,---,0.00,VWS V14.01,2013-10-31 18:35:00,
2013-10-31 14:40:00,86.7,65.3,30.04,ESE,114,7.5,8.6,49,0.00,,---,0.00,VWS V14.01,2013-10-31 18:40:00,
2013-10-31 14:45:00,87.4,64.5,30.03,SE,143,4.0,11.8,47,0.00,,---,0.00,VWS V14.01,2013-10-31 18:45:00,
2013-10-31 14:50:00,87.1,64.2,30.03,ESE,112,6.2,6.2,47,0.00,,---,0.00,VWS V14.01,2013-10-31 18:50:00,
2013-10-31 14:55:00,89.0,64.2,30.03,SE,127,9.0,9.7,44,0.00,,---,0.00,VWS V14.01,2013-10-31 18:55:00,
2013-10-31 15:00:00,88.9,63.2,30.02,SE,141,7.1,10.2,42,0.00,,---,0.00,VWS V14.01,2013-10-31 19:00:00,
2013-10-31 15:05:00,88.7,62.8,30.02,South,184,9.6,9.6,42,0.00,,---,0.00,VWS V14.01,2013-10-31 19:05:00,
2013-10-31 15:10:00,87.9,61.7,30.02,ESE,105,8.1,11.2,42,0.00,,---,0.00,VWS V14.01,2013-10-31 19:10:00,
2013-10-31 15:15:00,89.0,61.9,30.02,South,173,6.2,8.9,40,0.00,,---,0.00,VWS V14.01,2013-10-31 19:15:00,
2013-10-31 15:20:00,88.6,61.7,30.02,SSE,156,7.7,14.6,41,0.00,,---,0.00,VWS V14.01,2013-10-31 19:20:00,
2013-10-31 15:25:00,87.5,61.3,30.02,SSW,202,3.8,6.6,42,0.00,,---,0.00,VWS V14.01,2013-10-31 19:25:00,
2013-10-31 15:30:00,86.6,62.0,30.02,SSW,195,4.6,4.6,44,0.00,,---,0.00,VWS V14.01,2013-10-31 19:30:00,
2013-10-31 15:35:00,87.4,62.9,30.02,South,191,4.2,4.6,44,0.00,,---,0.00,VWS V14.01,2013-10-31 19:35:00,
2013-10-31 15:40:00,86.7,62.3,30.02,SSE,152,6.3,7.5,44,0.00,,---,0.00,VWS V14.01,2013-10-31 19:40:00,
2013-10-31 15:45:00,87.1,62.7,30.02,SE,142,2.7,4.5,44,0.00,,---,0.00,VWS V14.01,2013-10-31 19:45:00,
2013-10-31 15:50:00,87.2,62.5,30.02,SE,143,1.5,6.6,44,0.00,,---,0.00,VWS V14.01,2013-10-31 19:50:00,
2013-10-31 15:53:00,86.3,62.0,30.02,SSE,158,4.2,6.2,44,0.00,,---,0.00,VWS V14.01,2013-10-31 19:53:00,
2013-10-31 15:58:00,86.6,62.6,30.02,SSW,202,4.1,7.9,45,0.00,,---,0.00,VWS V14.01,2013-10-31 19:58:00,
2013-10-31 16:03:00,85.9,61.7,30.01,South,181,2.8,5.2,44,0.00,,---,0.00,VWS V14.01,2013-10-31 20:03:00,
2013-10-31 16:08:00,87.5,62.5,30.02,SSE,163,5.9,12.3,43,0.00,,---,0.00,VWS V14.01,2013-10-31 20:08:00,
2013-10-31 16:13:00,87.4,62.2,30.02,ESE,108,5.0,9.1,43,0.00,,---,0.00,VWS V14.01,2013-10-31 20:13:00,
2013-10-31 16:18:00,88.1,62.7,30.02,SSE,148,6.5,6.5,43,0.00,,---,0.00,VWS V14.01,2013-10-31 20:18:00,
2013-10-31 16:23:00,87.5,61.7,30.01,ESE,107,2.1,5.4,42,0.00,,---,0.00,VWS V14.01,2013-10-31 20:23:00,
2013-10-31 16:28:00,88.4,62.3,30.01,SSE,148,2.1,4.3,42,0.00,,---,0.00,VWS V14.01,2013-10-31 20:28:00,
2013-10-31 16:33:00,87.2,61.9,30.01,SE,129,3.6,7.0,43,0.00,,---,0.00,VWS V14.01,2013-10-31 20:33:00,
2013-10-31 16:38:00,88.1,62.8,30.01,SE,135,7.6,7.6,43,0.00,,---,0.00,VWS V14.01,2013-10-31 20:38:00,
2013-10-31 16:43:00,87.9,62.2,30.01,South,183,1.7,6.7,42,0.00,,---,0.00,VWS V14.01,2013-10-31 20:43:00,
2013-10-31 16:48:00,87.0,61.1,30.01,SSE,159,4.5,5.8,42,0.00,,---,0.00,VWS V14.01,2013-10-31 20:48:00,
2013-10-31 16:53:00,87.0,61.6,30.01,SSE,152,3.6,6.0,43,0.00,,---,0.00,VWS V14.01,2013-10-31 20:53:00,
2013-10-31 16:58:00,87.5,61.8,30.01,SE,129,3.0,5.6,42,0.00,,---,0.00,VWS V14.01,2013-10-31 20:58:00,
2013-10-31 17:03:00,86.9,61.9,30.00,SE,129,7.5,8.9,43,0.00,,---,0.00,VWS V14.01,2013-10-31 21:03:00,
2013-10-31 17:08:00,85.8,60.7,30.01,SE,146,5.7,5.7,43,0.00,,---,0.00,VWS V14.01,2013-10-31 21:08:00,
2013-10-31 17:13:00,86.5,61.6,30.00,SSE,163,3.8,6.0,43,0.00,,---,0.00,VWS V14.01,2013-10-31 21:13:00,
2013-10-31 17:18:00,86.3,62.0,30.00,SSE,159,5.4,6.8,44,0.00,,---,0.00,VWS V14.01,2013-10-31 21:18:00,
2013-10-31 17:23:00,86.1,62.0,30.00,SSE,152,3.8,4.9,45,0.00,,---,0.00,VWS V14.01,2013-10-31 21:23:00,
2013-10-31 17:28:00,85.7,62.2,30.00,SSE,150,3.4,3.4,45,0.00,,---,0.00,VWS V14.01,2013-10-31 21:28:00,
2013-10-31 17:33:00,85.2,62.1,30.00,SSE,158,5.5,5.5,46,0.00,,---,0.00,VWS V14.01,2013-10-31 21:33:00,
2013-10-31 17:38:00,84.4,61.7,30.00,SE,142,2.0,2.4,46,0.00,,---,0.00,VWS V14.01,2013-10-31 21:38:00,
2013-10-31 17:43:00,83.6,61.6,30.00,SSE,166,0.0,0.9,48,0.00,,---,0.00,VWS V14.01,2013-10-31 21:43:00,
2013-10-31 17:48:00,84.0,62.5,30.00,SE,143,4.8,5.7,48,0.00,,---,0.00,VWS V14.01,2013-10-31 21:48:00,
2013-10-31 17:53:00,84.2,64.5,30.00,NE,53,6.6,6.8,52,0.00,,---,0.00,VWS V14.01,2013-10-31 21:53:00,
2013-10-31 17:58:00,83.7,65.6,30.00,SSE,167,3.4,4.4,55,0.00,,---,0.00,VWS V14.01,2013-10-31 21:58:00,
2013-10-31 18:03:00,83.4,66.4,30.00,SSE,163,3.7,3.7,57,0.00,,---,0.00,VWS V14.01,2013-10-31 22:03:00,
2013-10-31 18:08:00,82.8,66.6,30.00,ENE,66,0.4,2.5,58,0.00,,---,0.00,VWS V14.01,2013-10-31 22:08:00,
2013-10-31 18:13:00,82.5,67.1,30.00,South,172,1.5,3.5,60,0.00,,---,0.00,VWS V14.01,2013-10-31 22:13:00,
2013-10-31 18:18:00,81.3,66.8,30.00,ESE,121,6.2,6.5,61,0.00,,---,0.00,VWS V14.01,2013-10-31 22:18:00,
2013-10-31 18:23:00,81.7,67.7,30.00,ESE,120,8.1,10.6,62,0.00,,---,0.00,VWS V14.01,2013-10-31 22:23:00,
2013-10-31 18:28:00,80.5,67.0,30.00,ESE,120,3.8,11.7,64,0.00,,---,0.00,VWS V14.01,2013-10-31 22:28:00,
2013-10-31 18:33:00,80.3,67.2,30.00,ESE,114,4.0,11.7,64,0.00,,---,0.00,VWS V14.01,2013-10-31 22:33:00,
2013-10-31 18:38:00,80.4,67.6,30.00,ESE,117,7.7,7.7,65,0.00,,---,0.00,VWS V14.01,2013-10-31 22:38:00,
2013-10-31 18:43:00,79.7,67.3,30.00,ESE,121,1.3,5.7,66,0.00,,---,0.00,VWS V14.01,2013-10-31 22:43:00,
2013-10-31 18:48:00,80.2,68.0,30.00,SSE,153,0.0,0.8,66,0.00,,---,0.00,VWS V14.01,2013-10-31 22:48:00,
2013-10-31 18:53:00,80.3,68.3,30.00,ESE,108,5.7,7.1,67,0.00,,---,0.00,VWS V14.01,2013-10-31 22:53:00,
2013-10-31 18:58:00,80.1,68.2,30.00,SSE,149,3.9,8.0,67,0.00,,---,0.00,VWS V14.01,2013-10-31 22:58:00,
2013-10-31 19:03:00,80.0,68.1,30.00,SE,145,2.4,4.9,67,0.00,,---,0.00,VWS V14.01,2013-10-31 23:03:00,
2013-10-31 19:08:00,79.2,67.4,30.00,SE,125,1.1,4.2,67,0.00,,---,0.00,VWS V14.01,2013-10-31 23:08:00,
2013-10-31 19:13:00,79.0,67.4,30.00,ESE,121,6.0,8.9,68,0.00,,---,0.00,VWS V14.01,2013-10-31 23:13:00,
2013-10-31 19:18:00,78.7,67.2,30.00,East,94,7.2,7.2,68,0.00,,---,0.00,VWS V14.01,2013-10-31 23:18:00,
2013-10-31 19:23:00,78.7,67.3,30.00,ESE,118,1.0,2.6,68,0.00,,---,0.00,VWS V14.01,2013-10-31 23:23:00,
2013-10-31 19:28:00,79.3,68.0,30.01,South,170,3.0,3.0,68,0.00,,---,0.00,VWS V14.01,2013-10-31 23:28:00,
2013-10-31 19:33:00,78.4,67.2,30.01,SE,139,3.9,4.7,69,0.00,,---,0.00,VWS V14.01,2013-10-31 23:33:00,
2013-10-31 19:38:00,78.8,67.7,30.01,SE,128,0.0,0.0,69,0.00,,---,0.00,VWS V14.01,2013-10-31 23:38:00,
2013-10-31 19:43:00,78.5,67.5,30.01,East,98,2.1,6.3,69,0.00,,---,0.00,VWS V14.01,2013-10-31 23:43:00,
2013-10-31 19:48:00,78.7,67.8,30.01,ESE,107,0.0,0.0,69,0.00,,---,0.00,VWS V14.01,2013-10-31 23:48:00,
2013-10-31 19:53:00,78.4,67.6,30.01,SE,135,2.2,2.2,69,0.00,,---,0.00,VWS V14.01,2013-10-31 23:53:00,
2013-10-31 19:58:00,78.3,67.6,30.01,SE,139,5.5,7.7,70,0.00,,---,0.00,VWS V14.01,2013-10-31 23:58:00,
2013-10-31 20:03:00,77.9,67.3,30.02,ESE,121,0.0,0.0,70,0.00,,---,0.00,VWS V14.01,2013-11-01 00:03:00,
2013-10-31 20:08:00,78.1,67.7,30.02,ESE,105,1.7,7.1,70,0.00,,---,0.00,VWS V14.01,2013-11-01 00:08:00,
2013-10-31 20:13:00,78.1,67.9,30.02,SSE,155,5.7,6.3,71,0.00,,---,0.00,VWS V14.01,2013-11-01 00:13:00,
2013-10-31 20:18:00,78.1,68.0,30.02,East,100,1.1,5.4,71,0.00,,---,0.00,VWS V14.01,2013-11-01 00:18:00,
2013-10-31 20:23:00,77.9,67.9,30.02,SE,142,4.9,4.9,71,0.00,,---,0.00,VWS V14.01,2013-11-01 00:23:00,
2013-10-31 20:28:00,77.9,67.9,30.02,NE,44,1.5,5.0,71,0.00,,---,0.00,VWS V14.01,2013-11-01 00:28:00,
2013-10-31 20:33:00,77.1,67.1,30.02,SSE,153,3.2,4.3,71,0.00,,---,0.00,VWS V14.01,2013-11-01 00:33:00,
2013-10-31 20:38:00,77.9,68.0,30.02,ESE,114,10.9,10.9,72,0.00,,---,0.00,VWS V14.01,2013-11-01 00:38:00,
2013-10-31 20:43:00,77.7,67.9,30.02,SE,141,7.2,10.2,72,0.00,,---,0.00,VWS V14.01,2013-11-01 00:43:00,
2013-10-31 20:48:00,77.0,67.4,30.02,South,181,3.9,6.2,72,0.00,,---,0.00,VWS V14.01,2013-11-01 00:48:00,
2013-10-31 20:53:00,77.9,68.5,30.03,SE,124,4.2,10.6,73,0.00,,---,0.00,VWS V14.01,2013-11-01 00:53:00,
2013-10-31 20:58:00,76.7,67.6,30.02,East,83,0.9,2.3,73,0.00,,---,0.00,VWS V14.01,2013-11-01 00:58:00,
2013-10-31 21:03:00,77.2,68.3,30.03,SSE,162,4.0,4.0,74,0.00,,---,0.00,VWS V14.01,2013-11-01 01:03:00,
2013-10-31 21:08:00,76.2,67.5,30.03,East,89,0.0,0.0,74,0.00,,---,0.00,VWS V14.01,2013-11-01 01:08:00,
2013-10-31 21:13:00,77.2,68.6,30.03,SE,136,3.4,3.4,75,0.00,,---,0.00,VWS V14.01,2013-11-01 01:13:00,
2013-10-31 21:18:00,77.0,68.6,30.03,SE,128,2.1,3.0,75,0.00,,---,0.00,VWS V14.01,2013-11-01 01:18:00,
2013-10-31 21:23:00,76.9,68.7,30.03,SSE,149,3.7,6.6,76,0.00,,---,0.00,VWS V14.01,2013-11-01 01:23:00,
2013-10-31 21:28:00,76.3,68.2,30.02,ESE,107,0.4,0.4,76,0.00,,---,0.00,VWS V14.01,2013-11-01 01:28:00,
2013-10-31 21:33:00,77.0,69.0,30.02,SE,146,1.0,2.9,76,0.00,,---,0.00,VWS V14.01,2013-11-01 01:33:00,
2013-10-31 21:38:00,76.2,68.3,30.02,SE,135,3.8,5.3,76,0.00,,---,0.00,VWS V14.01,2013-11-01 01:38:00,
2013-10-31 21:43:00,76.5,68.7,30.03,SE,135,2.7,4.5,77,0.00,,---,0.00,VWS V14.01,2013-11-01 01:43:00,
2013-10-31 21:48:00,76.6,68.8,30.02,East,101,4.7,4.7,77,0.00,,---,0.00,VWS V14.01,2013-11-01 01:48:00,
2013-10-31 21:53:00,76.6,68.9,30.02,SSE,166,2.9,3.9,77,0.00,,---,0.00,VWS V14.01,2013-11-01 01:53:00,
2013-10-31 21:58:00,76.9,69.2,30.02,SSE,158,5.3,6.2,77,0.00,,---,0.00,VWS V14.01,2013-11-01 01:58:00,
2013-10-31 22:03:00,76.7,69.0,30.02,SE,146,6.0,7.5,77,0.00,,---,0.00,VWS V14.01,2013-11-01 02:03:00,
2013-10-31 22:08:00,76.6,68.9,30.02,SSE,160,3.7,5.5,77,0.00,,---,0.00,VWS V14.01,2013-11-01 02:08:00,
2013-10-31 22:13:00,76.6,68.9,30.02,South,174,3.5,3.9,77,0.00,,---,0.00,VWS V14.01,2013-11-01 02:13:00,
2013-10-31 22:18:00,76.4,68.7,30.02,SSE,160,3.9,4.2,77,0.00,,---,0.00,VWS V14.01,2013-11-01 02:18:00,
2013-10-31 22:23:00,75.9,68.3,30.03,SE,124,5.2,7.3,77,0.00,,---,0.00,VWS V14.01,2013-11-01 02:23:00,
2013-10-31 22:28:00,76.2,68.7,30.03,SSW,212,3.0,4.2,78,0.00,,---,0.00,VWS V14.01,2013-11-01 02:28:00,
2013-10-31 22:33:00,75.4,68.1,30.03,South,190,3.2,5.1,78,0.00,,---,0.00,VWS V14.01,2013-11-01 02:33:00,
2013-10-31 22:38:00,76.5,69.2,30.02,South,173,3.3,6.4,78,0.00,,---,0.00,VWS V14.01,2013-11-01 02:38:00,
2013-10-31 22:43:00,76.5,69.3,30.02,SSE,159,1.6,1.7,78,0.00,,---,0.00,VWS V14.01,2013-11-01 02:43:00,
2013-10-31 22:48:00,76.0,68.9,30.02,SE,146,1.6,3.6,79,0.00,,---,0.00,VWS V14.01,2013-11-01 02:48:00,
2013-10-31 22:53:00,76.4,69.5,30.02,SE,142,7.3,8.3,79,0.00,,---,0.00,VWS V14.01,2013-11-01 02:53:00,
2013-10-31 22:58:00,76.2,69.5,30.02,ESE,118,6.0,6.2,80,0.00,,---,0.00,VWS V14.01,2013-11-01 02:58:00,
2013-10-31 23:03:00,75.9,69.4,30.02,SE,128,5.3,7.6,80,0.00,,---,0.00,VWS V14.01,2013-11-01 03:03:00,
2013-10-31 23:08:00,76.1,69.7,30.02,SE,124,1.3,1.7,81,0.00,,---,0.00,VWS V14.01,2013-11-01 03:08:00,
2013-10-31 23:13:00,76.4,70.1,30.02,SE,136,2.8,4.8,81,0.00,,---,0.00,VWS V14.01,2013-11-01 03:13:00,
2013-10-31 23:18:00,75.3,69.2,30.02,SE,142,3.2,3.9,82,0.00,,---,0.00,VWS V14.01,2013-11-01 03:18:00,
2013-10-31 23:23:00,76.2,70.3,30.02,SSE,160,8.6,8.6,82,0.00,,---,0.00,VWS V14.01,2013-11-01 03:23:00,
2013-10-31 23:28:00,75.0,69.3,30.02,ESE,120,3.1,4.7,82,0.00,,---,0.00,VWS V14.01,2013-11-01 03:28:00,
2013-10-31 23:33:00,75.7,70.1,30.02,ESE,112,1.6,3.7,83,0.00,,---,0.00,VWS V14.01,2013-11-01 03:33:00,
2013-10-31 23:38:00,75.0,69.6,30.02,South,173,1.8,4.4,83,0.00,,---,0.00,VWS V14.01,2013-11-01 03:38:00,
2013-10-31 23:43:00,76.0,70.7,30.02,South,172,4.3,6.0,84,0.00,,---,0.00,VWS V14.01,2013-11-01 03:43:00,
2013-10-31 23:48:00,75.7,70.5,30.02,SE,129,0.0,0.0,84,0.00,,---,0.00,VWS V14.01,2013-11-01 03:48:00,
2013-10-31 23:53:00,75.9,70.8,30.02,ESE,103,3.4,7.8,84,0.00,,---,0.00,VWS V14.01,2013-11-01 03:53:00,
2013-10-31 23:59:00,74.8,69.9,30.02,SE,142,1.4,8.0,85,0.00,,---,0.00,VWS V14.01,2013-11-01 03:59:00,